Find Starlink 30916

NORAD ID: 58391 Int'l Des: 2023-178 Owner: SPXS Country: US Constellation: starlink operational
LEOCIRCULAR

Current View

Loading 3D Globe...

About Starlink 30916

Starlink 30916 (NORAD 58391) is a starlink constellation satellite (v2 mini) launched Nov 20, 2023 by SPXS of US. It operates in LEO, CIRCULAR orbit with a mass of 730.00 kg.

Upcoming Passes

Passes for default location (London). Set your location on the main map for personalized predictions.

Altitude History

Loading altitude history...

Two-Line Element Set

1 58391U 23178T 26235.54520633 .00001767 00000-0 63500-4 0 9992
2 58391 53.1597 302.6932 0002715 102.0309 258.0998 15.34375062155483
Epoch: Aug 23, 2026 • Age: 14 hours

Current Status

Altitude 482.4 km
Apogee / Perigee N/A
Velocity 7.62 km/s
Sub-Earth Point -51.38°S, 143.52°W
Launch Date Nov 20, 2023
Age 2.7 years
Type internet

Technical Details

Classification Payload
Mass 730.00 kg
Dry Mass 700.00 kg
Total Mass 730.00 kg
Length 0.30 m
Diameter 4.10 m
Span 29.00 m
Shape Box + pan
Manufacturer SPXS
Bus Type Starlink V2M
Phase Status In Orbit
Owner/State SPXS/US

Most Searched